West Bend, WI

12:24 AM CDT on June 29, 2017 (GMT -0500)
West Bend Municipal

Weather History for KETB - April, 2014

Change the Weather History Date:

Sunday, April 20, 2014

  Actual Average Record
Temperature  
Mean Temperature 58 °F -  
Max Temperature 73 °F 58 °F 83 °F (1985)
Min Temperature 44 °F 38 °F 23 °F (1956)
Degree Days  
Heating Degree Days 6    
Growing Degree Days 8 (Base 50)    
Moisture  
Dew Point 37 °F    
Average Humidity 49    
Maximum Humidity 76    
Minimum Humidity 25    
Precipitation  
Precipitation 0.00 in - - ()
Sea Level Pressure  
Sea Level Pressure 30.11 in    
Wind  
Wind Speed 5 mph (South)    
Max Wind Speed 16 mph    
Max Gust Speed 21 mph    
Visibility 10 miles    
Events Rain    
Averages and records for this station are not official NWS values.
T = Trace of Precipitation, MM = Missing Value Source: NWS Daily Summary

Daily Weather History Graph

Daily Weather History Graph

Search for Another Location

Airport or City:

Trip Planner

Search our weather history database for the weather conditions in past years. The results will help you decide how hot, cold, wet, or windy it might be!

Date:

Astronomy

Apr. 20, 2014 Rise Set
Actual Time 6:01 AM CDT 7:41 PM CDT
Civil Twilight 5:31 AM CDT 8:11 PM CDT
Nautical Twilight 4:55 AM CDT 8:48 PM CDT
Astronomical Twilight 4:15 AM CDT 9:28 PM CDT
Moon 12:24 AM CDT (4/20) 10:18 AM CDT (4/20)
Length of Visible Light 14h 40m
Length of Day
13h 39m
Waning Gibbous, 68% of the Moon is Illuminated
Apr 20
Waning Gibbous
Apr 22
Last Quarter
Apr 29
New
May 6
First Quarter
May 14
Full

Hourly Weather History & Observations

Time (CDT) Temp. Windchill Dew Point Humidity Pressure Visibility Wind Dir Wind Speed Gust Speed Precip Events Conditions
12:10 AM 44.6 °F 43.1 °F 32.0 °F 61% 30.22 in 10.0 mi South 3.5 mph - N/A   Clear
12:30 AM 44.6 °F 43.1 °F 32.0 °F 61% 30.21 in 10.0 mi SSE 3.5 mph - N/A   Clear
12:50 AM 44.6 °F 41.4 °F 32.0 °F 61% 30.20 in 10.0 mi South 5.8 mph - N/A   Clear
1:10 AM 44.6 °F 41.4 °F 32.0 °F 61% 30.20 in 10.0 mi SSE 5.8 mph - N/A   Clear
1:30 AM 44.6 °F 42.2 °F 32.0 °F 61% 30.20 in 10.0 mi SSE 4.6 mph - N/A   Clear
1:50 AM 44.6 °F 43.1 °F 32.0 °F 61% 30.19 in 10.0 mi SSE 3.5 mph - N/A   Clear
2:10 AM 44.6 °F 42.2 °F 32.0 °F 61% 30.19 in 10.0 mi South 4.6 mph - N/A   Clear
2:30 AM 44.6 °F 41.4 °F 32.0 °F 61% 30.18 in 10.0 mi South 5.8 mph - N/A   Clear
2:50 AM 46.4 °F 45.2 °F 33.8 °F 62% 30.18 in 10.0 mi SSE 3.5 mph - N/A   Scattered Clouds
3:10 AM 46.4 °F 43.5 °F 32.0 °F 57% 30.18 in 10.0 mi SSE 5.8 mph - N/A   Scattered Clouds
3:30 AM 46.4 °F 44.3 °F 32.0 °F 57% 30.18 in 10.0 mi SSE 4.6 mph - N/A   Clear
4:10 AM 46.4 °F 42.9 °F 33.8 °F 62% 30.17 in 10.0 mi South 6.9 mph - N/A   Clear
4:30 AM 46.4 °F 42.9 °F 33.8 °F 62% 30.17 in 10.0 mi South 6.9 mph - N/A   Clear
4:50 AM 46.4 °F 42.4 °F 32.0 °F 57% 30.17 in 10.0 mi South 8.1 mph - N/A   Mostly Cloudy
5:10 AM 48.2 °F - 32.0 °F 54% 30.16 in 10.0 mi SSE 6.9 mph - N/A   Mostly Cloudy
5:30 AM 48.2 °F - 32.0 °F 54% 30.17 in 10.0 mi South 3.5 mph - N/A   Mostly Cloudy
5:50 AM 48.2 °F - 32.0 °F 54% 30.17 in 10.0 mi South 4.6 mph - N/A   Light Drizzle
6:10 AM 48.2 °F - 33.8 °F 58% 30.17 in 10.0 mi South 5.8 mph - N/A Rain Light Rain
6:30 AM 48.2 °F - 33.8 °F 58% 30.18 in 10.0 mi SSW 3.5 mph - N/A   Overcast
6:50 AM 50.0 °F - 33.8 °F 54% 30.18 in 10.0 mi South 4.6 mph - N/A   Overcast
7:10 AM 50.0 °F - 33.8 °F 54% 30.18 in 10.0 mi South 3.5 mph - N/A   Overcast
7:30 AM 50.0 °F - 33.8 °F 54% 30.18 in 10.0 mi South 5.8 mph - N/A   Overcast
7:50 AM 50.0 °F - 33.8 °F 54% 30.18 in 10.0 mi SSW 4.6 mph - N/A   Mostly Cloudy
8:10 AM 50.0 °F - 35.6 °F 58% 30.17 in 10.0 mi SSE 6.9 mph - N/A   Overcast
8:30 AM 51.8 °F - 33.8 °F 50% 30.17 in 10.0 mi South 8.1 mph - N/A   Overcast
8:50 AM 51.8 °F - 35.6 °F 54% 30.16 in 10.0 mi South 6.9 mph - N/A Rain Light Rain
9:10 AM 50.0 °F - 37.4 °F 62% 30.17 in 10.0 mi SW 3.5 mph - N/A   Overcast
9:30 AM 53.6 °F - 37.4 °F 54% 30.16 in 10.0 mi South 8.1 mph - N/A   Overcast
9:50 AM 55.4 °F - 37.4 °F 51% 30.15 in 10.0 mi South 9.2 mph - N/A   Mostly Cloudy
10:10 AM 60.8 °F - 35.6 °F 39% 30.15 in 10.0 mi South 10.4 mph - N/A   Mostly Cloudy
10:30 AM 60.8 °F - 33.8 °F 36% 30.15 in 10.0 mi South 8.1 mph - N/A   Scattered Clouds
10:50 AM 60.8 °F - 35.6 °F 39% 30.15 in 10.0 mi South 8.1 mph - N/A   Scattered Clouds
11:10 AM 64.4 °F - 35.6 °F 34% 30.14 in 10.0 mi South 6.9 mph - N/A   Scattered Clouds
11:30 AM 68.0 °F - 35.6 °F 30% 30.14 in 10.0 mi SSW 10.4 mph - N/A   Clear
11:50 AM 68.0 °F - 35.6 °F 30% 30.13 in 10.0 mi South 12.7 mph 17.3 mph N/A   Clear
12:10 PM 69.8 °F - 35.6 °F 28% 30.12 in 10.0 mi South 16.1 mph 20.7 mph N/A   Scattered Clouds
12:30 PM 69.8 °F - 35.6 °F 28% 30.11 in 10.0 mi SSW 11.5 mph 18.4 mph N/A   Mostly Cloudy
12:50 PM 69.8 °F - 35.6 °F 28% 30.10 in 10.0 mi SSW 11.5 mph 16.1 mph N/A   Mostly Cloudy
1:10 PM 71.6 °F - 37.4 °F 29% 30.10 in 10.0 mi South 8.1 mph - N/A   Scattered Clouds
1:30 PM 71.6 °F - 35.6 °F 27% 30.10 in 10.0 mi SSW 9.2 mph - N/A   Clear
1:50 PM 71.6 °F - 35.6 °F 27% 30.09 in 10.0 mi SW 9.2 mph - N/A   Mostly Cloudy
2:10 PM 73.4 °F - 35.6 °F 25% 30.08 in 10.0 mi West 9.2 mph - N/A   Overcast
2:50 PM 73.4 °F - 37.4 °F 27% 30.07 in 10.0 mi West 8.1 mph - N/A   Clear
3:10 PM 73.4 °F - 37.4 °F 27% 30.06 in 10.0 mi West 5.8 mph - N/A   Clear
3:30 PM 73.4 °F - 37.4 °F 27% 30.06 in 10.0 mi West 6.9 mph - N/A   Clear
3:50 PM 73.4 °F - 37.4 °F 27% 30.06 in 10.0 mi WSW 6.9 mph - N/A   Scattered Clouds
4:10 PM 73.4 °F - 39.2 °F 29% 30.06 in 10.0 mi SW 6.9 mph - N/A   Mostly Cloudy
4:30 PM 73.4 °F - 37.4 °F 27% 30.05 in 10.0 mi SW 6.9 mph - N/A   Mostly Cloudy
4:50 PM 71.6 °F - 39.2 °F 31% 30.05 in 10.0 mi WSW 3.5 mph - N/A   Mostly Cloudy
5:10 PM 71.6 °F - 41.0 °F 33% 30.05 in 10.0 mi ENE 3.5 mph - N/A   Mostly Cloudy
5:30 PM 68.0 °F - 41.0 °F 37% 30.04 in 10.0 mi ENE 8.1 mph - N/A   Overcast
5:50 PM 64.4 °F - 41.0 °F 42% 30.04 in 10.0 mi ENE 4.6 mph - N/A   Mostly Cloudy
6:10 PM 64.4 °F - 42.8 °F 45% 30.03 in 10.0 mi NNE 3.5 mph - N/A   Overcast
6:30 PM 62.6 °F - 41.0 °F 45% 30.03 in 10.0 mi Calm Calm - N/A   Overcast
6:50 PM 60.8 °F - 41.0 °F 48% 30.03 in 10.0 mi NNE 6.9 mph - N/A Rain Light Rain
7:10 PM 60.8 °F - 41.0 °F 48% 30.02 in 10.0 mi NE 4.6 mph - N/A   Overcast
7:30 PM 59.0 °F - 41.0 °F 51% 30.02 in 10.0 mi Calm Calm - N/A   Overcast
7:50 PM 59.0 °F - 41.0 °F 51% 30.02 in 10.0 mi Calm Calm - N/A   Overcast
8:10 PM 55.4 °F - 41.0 °F 58% 30.00 in 10.0 mi NNE 3.5 mph - N/A   Overcast
8:30 PM 55.4 °F - 41.0 °F 58% 30.00 in 10.0 mi Calm Calm - N/A   Mostly Cloudy
8:50 PM 55.4 °F - 41.0 °F 58% 30.01 in 10.0 mi Calm Calm - N/A   Scattered Clouds
9:10 PM 53.6 °F - 41.0 °F 62% 30.01 in 10.0 mi Calm Calm - N/A   Mostly Cloudy
9:30 PM 53.6 °F - 41.0 °F 62% 30.00 in 10.0 mi Calm Calm - N/A   Overcast
9:50 PM 51.8 °F - 41.0 °F 67% 30.00 in 10.0 mi Calm Calm - N/A   Mostly Cloudy
10:10 PM 51.8 °F - 41.0 °F 67% 30.00 in 10.0 mi Calm Calm - N/A   Overcast
10:30 PM 51.8 °F - 41.0 °F 67% 30.00 in 10.0 mi Calm Calm - N/A   Mostly Cloudy
10:50 PM 51.8 °F - 41.0 °F 67% 29.99 in 10.0 mi Calm Calm - N/A   Scattered Clouds
11:10 PM 51.8 °F - 41.0 °F 67% 29.99 in 10.0 mi Calm Calm - N/A   Clear
11:30 PM 50.0 °F - 42.8 °F 76% 29.99 in 10.0 mi Calm Calm - N/A   Clear
11:50 PM 50.0 °F - 41.0 °F 71% 29.98 in 10.0 mi Calm Calm - N/A   Clear